SBI2615 UUDD-UNTT

Flight info

Callsign SBI2615
Flight time N/A
Altitude 33000
Route N0450F330 OLMUN T629 IPSIL T830 LAMGU N604 OGSIN P983 TINRI T448 RUBOR R244 KZ A300 NN
Aircraft A319/M-VGDW/C

Departure

Time N/A
Airport Domodedovo International Airport (UUDD)

Arrival

Time 2026-04-19 23:10
Airport Tomsk Kamov Airport (UNTT)
Time Latitude Longitude Altitude Speed Heading
2026-04-19 20:48 57.91259 51.08109 32946 ft 515 kts 87°
2026-04-19 20:48 57.91603 51.14817 32946 ft 515 kts 87°
2026-04-19 20:48 57.92280 51.28226 32945 ft 515 kts 87°
2026-04-19 20:49 57.92959 51.41651 32943 ft 516 kts 86°
2026-04-19 20:49 57.93625 51.55097 32942 ft 516 kts 86°
2026-04-19 20:50 57.94285 51.68542 32938 ft 516 kts 86°
2026-04-19 20:50 57.94937 51.82018 32938 ft 517 kts 87°
2026-04-19 20:51 57.95559 51.95503 32936 ft 517 kts 87°
2026-04-19 20:51 57.96167 52.08996 32941 ft 517 kts 87°
2026-04-19 20:52 57.96768 52.22504 32946 ft 517 kts 87°
2026-04-19 20:52 57.97360 52.36003 32952 ft 517 kts 87°
2026-04-19 20:53 57.97935 52.49414 32957 ft 517 kts 87°
2026-04-19 20:53 57.98497 52.62923 32961 ft 517 kts 88°
2026-04-19 20:54 57.99042 52.76417 32960 ft 516 kts 88°
2026-04-19 20:54 57.99566 52.89913 32963 ft 516 kts 88°
2026-04-19 20:55 58.00077 53.03386 32963 ft 515 kts 88°
2026-04-19 20:55 58.00583 53.16849 32961 ft 515 kts 88°
2026-04-19 20:56 58.01069 53.30319 32958 ft 515 kts 88°
2026-04-19 20:56 58.01537 53.43830 32957 ft 516 kts 88°
2026-04-19 20:57 58.01991 53.57344 32954 ft 517 kts 88°
2026-04-19 20:57 58.02436 53.70876 32956 ft 517 kts 88°
2026-04-19 20:58 58.02871 53.84420 32958 ft 518 kts 88°
2026-04-19 20:58 58.03280 53.97988 32964 ft 518 kts 88°
2026-04-19 20:59 58.03682 54.11551 32969 ft 517 kts 88°
2026-04-19 20:59 58.04089 54.25113 32962 ft 517 kts 88°
2026-04-19 21:00 58.04479 54.38675 32965 ft 517 kts 89°
2026-04-19 21:00 58.04841 54.52252 32968 ft 518 kts 89°
2026-04-19 21:01 58.05185 54.65824 32964 ft 518 kts 89°
2026-04-19 21:01 58.05361 54.79399 32966 ft 516 kts 96°
2026-04-19 21:02 58.04486 54.92781 32972 ft 514 kts 101°
2026-04-19 21:02 58.03540 55.06139 32972 ft 514 kts 101°
2026-04-19 21:03 58.02574 55.19509 32966 ft 514 kts 101°
2026-04-19 21:03 58.01590 55.32776 32967 ft 514 kts 101°
2026-04-19 21:04 58.00608 55.46150 32964 ft 515 kts 101°
2026-04-19 21:04 57.99629 55.59506 32996 ft 514 kts 101°
2026-04-19 21:05 57.98625 55.72814 32995 ft 512 kts 102°
2026-04-19 21:05 57.97606 55.86081 32992 ft 511 kts 102°
2026-04-19 21:06 57.96585 55.99314 32985 ft 510 kts 102°
2026-04-19 21:06 57.95555 56.12509 32973 ft 509 kts 102°
2026-04-19 21:07 57.94502 56.25682 32963 ft 509 kts 102°
2026-04-19 21:07 57.93443 56.38852 32961 ft 509 kts 102°
2026-04-19 21:08 57.92372 56.52032 32960 ft 509 kts 102°
2026-04-19 21:08 57.91470 56.62960 32961 ft 509 kts 102°
2026-04-19 21:09 57.90197 56.78237 32961 ft 509 kts 102°
2026-04-19 21:09 57.89084 56.91358 32958 ft 508 kts 102°
2026-04-19 21:10 57.87958 57.04481 32954 ft 508 kts 103°
2026-04-19 21:10 57.87002 57.15468 32951 ft 508 kts 103°
2026-04-19 21:11 57.85856 57.28483 32951 ft 509 kts 103°
2026-04-19 21:11 57.84696 57.41590 32950 ft 509 kts 103°
2026-04-19 21:12 57.83519 57.54698 32952 ft 509 kts 103°
2026-04-19 21:12 57.82318 57.67805 32953 ft 510 kts 103°
2026-04-19 21:13 57.81107 57.80923 32952 ft 510 kts 103°
2026-04-19 21:13 57.79884 57.94039 32951 ft 511 kts 103°
2026-04-19 21:14 57.78644 58.07151 32955 ft 511 kts 103°
2026-04-19 21:14 57.77411 58.20256 32956 ft 511 kts 103°
2026-04-19 21:15 57.76155 58.33360 32961 ft 511 kts 103°
2026-04-19 21:15 57.74883 58.46465 32963 ft 511 kts 103°
2026-04-19 21:16 57.73609 58.59554 32962 ft 512 kts 103°
2026-04-19 21:16 57.72327 58.72660 32965 ft 512 kts 103°
2026-04-19 21:17 57.71037 58.85776 32964 ft 512 kts 103°
2026-04-19 21:17 57.69716 58.98855 32968 ft 512 kts 104°
2026-04-19 21:18 57.68375 59.11937 32964 ft 512 kts 104°
2026-04-19 21:18 57.67024 59.25005 32960 ft 513 kts 104°
2026-04-19 21:19 57.65664 59.37987 32955 ft 513 kts 104°
2026-04-19 21:19 57.64282 59.51150 32953 ft 513 kts 104°
2026-04-19 21:20 57.62909 59.64134 32950 ft 514 kts 104°
2026-04-19 21:20 57.61502 59.77208 32944 ft 514 kts 104°
2026-04-19 21:21 57.60081 59.90280 32947 ft 514 kts 104°
2026-04-19 21:21 57.58654 60.03361 32944 ft 515 kts 104°
2026-04-19 21:22 57.57214 60.16433 32944 ft 515 kts 104°
2026-04-19 21:22 57.55750 60.29490 32948 ft 515 kts 104°
2026-04-19 21:23 57.54274 60.42509 32948 ft 515 kts 104°
2026-04-19 21:23 57.52783 60.55553 32951 ft 515 kts 104°
2026-04-19 21:24 57.51958 60.68803 32954 ft 518 kts 94°
2026-04-19 21:24 57.51579 60.82175 32954 ft 518 kts 94°
2026-04-19 21:25 57.51184 60.95551 32955 ft 517 kts 94°
2026-04-19 21:25 57.50772 61.08908 32952 ft 517 kts 94°
2026-04-19 21:26 57.50342 61.22264 32952 ft 517 kts 94°
2026-04-19 21:26 57.49893 61.35619 32951 ft 517 kts 94°
2026-04-19 21:27 57.49434 61.48971 32946 ft 517 kts 94°
2026-04-19 21:27 57.48956 61.62333 32952 ft 518 kts 94°
2026-04-19 21:28 57.48474 61.75680 32951 ft 517 kts 94°
2026-04-19 21:28 57.47986 61.88934 32950 ft 517 kts 94°
2026-04-19 21:29 57.47482 62.02268 32952 ft 518 kts 94°
2026-04-19 21:29 57.46953 62.15597 32955 ft 517 kts 94°
2026-04-19 21:30 57.46419 62.28920 32954 ft 517 kts 94°
2026-04-19 21:30 57.45887 62.42248 32958 ft 517 kts 94°
2026-04-19 21:31 57.45334 62.55588 32961 ft 518 kts 94°
2026-04-19 21:31 57.44771 62.68911 32969 ft 517 kts 95°
2026-04-19 21:32 57.44189 62.82234 32975 ft 517 kts 95°
2026-04-19 21:32 57.43599 62.95538 32981 ft 517 kts 95°
2026-04-19 21:33 57.42983 63.08852 32991 ft 517 kts 95°
2026-04-19 21:33 57.42357 63.22141 32992 ft 517 kts 95°
2026-04-19 21:34 57.41725 63.35451 32986 ft 518 kts 95°
2026-04-19 21:34 57.41078 63.48757 32998 ft 518 kts 95°
2026-04-19 21:35 57.40415 63.62070 32996 ft 518 kts 95°
2026-04-19 21:35 57.39661 63.75366 32986 ft 518 kts 100°
2026-04-19 21:36 57.37967 63.88248 32992 ft 518 kts 106°
2026-04-19 21:36 57.36145 64.01165 32995 ft 518 kts 106°
2026-04-19 21:37 57.34314 64.14063 33002 ft 518 kts 106°
2026-04-19 21:37 57.32461 64.26949 33003 ft 517 kts 106°
2026-04-19 21:38 57.30592 64.39796 33009 ft 517 kts 106°
2026-04-19 21:38 57.28711 64.52616 33007 ft 516 kts 106°
2026-04-19 21:39 57.26829 64.65403 33004 ft 516 kts 107°
2026-04-19 21:39 57.24937 64.78175 33007 ft 515 kts 106°
2026-04-19 21:40 57.22090 64.97228 32999 ft 514 kts 107°
2026-04-19 21:41 57.20164 65.09936 32985 ft 514 kts 107°
2026-04-19 21:41 57.18225 65.22599 32995 ft 513 kts 107°
2026-04-19 21:42 57.16613 65.35314 32990 ft 513 kts 96°
2026-04-19 21:42 57.15810 65.48379 32991 ft 513 kts 96°
2026-04-19 21:43 57.14972 65.61438 32990 ft 513 kts 96°
2026-04-19 21:43 57.14112 65.74489 32989 ft 513 kts 96°
2026-04-19 21:44 57.13235 65.87543 32995 ft 514 kts 96°
2026-04-19 21:44 57.12363 66.00598 32996 ft 514 kts 96°
2026-04-19 21:45 57.11475 66.13639 32999 ft 514 kts 96°
2026-04-19 21:45 57.10568 66.26675 33000 ft 513 kts 96°
2026-04-19 21:46 57.09646 66.39710 33001 ft 513 kts 97°
2026-04-19 21:46 57.08721 66.52719 33003 ft 512 kts 97°
2026-04-19 21:47 57.07783 66.65714 33009 ft 512 kts 97°
2026-04-19 21:47 57.06820 66.78694 33011 ft 512 kts 97°
2026-04-19 21:48 57.05845 66.91640 33007 ft 512 kts 97°
2026-04-19 21:48 57.04795 67.04568 33010 ft 512 kts 98°
2026-04-19 21:49 57.03665 67.17484 33014 ft 512 kts 98°
2026-04-19 21:49 57.02532 67.30281 33014 ft 512 kts 98°
2026-04-19 21:50 57.01398 67.43164 33017 ft 511 kts 98°
2026-04-19 21:50 57.00258 67.56042 33019 ft 511 kts 98°
2026-04-19 21:51 56.99095 67.68926 33022 ft 512 kts 98°
2026-04-19 21:51 56.97913 67.81798 33026 ft 512 kts 99°
2026-04-19 21:52 56.96722 67.94673 33032 ft 512 kts 99°
2026-04-19 21:52 56.95523 68.07505 33034 ft 511 kts 99°
2026-04-19 21:53 56.94303 68.20316 33030 ft 510 kts 99°
2026-04-19 21:53 56.93088 68.33125 33031 ft 510 kts 99°
2026-04-19 21:54 56.91860 68.45851 33037 ft 511 kts 99°
2026-04-19 21:54 56.90606 68.58649 33042 ft 511 kts 99°
2026-04-19 21:55 56.89333 68.71442 33046 ft 511 kts 99°
2026-04-19 21:55 56.88265 68.82163 33042 ft 511 kts 99°
2026-04-19 21:56 56.86979 68.94959 33047 ft 512 kts 99°
2026-04-19 21:56 56.85674 69.07762 33052 ft 512 kts 99°
2026-04-19 21:57 56.84695 69.17184 33052 ft 512 kts 99°
2026-04-19 21:57 56.83024 69.33225 33054 ft 511 kts 99°
2026-04-19 21:58 56.81688 69.45979 33052 ft 511 kts 99°
2026-04-19 21:58 56.80336 69.58718 33057 ft 511 kts 99°
2026-04-19 21:59 56.78962 69.71470 33116 ft 512 kts 100°
2026-04-19 21:59 56.77583 69.84199 33127 ft 512 kts 100°
2026-04-19 22:00 56.76190 69.96915 33132 ft 511 kts 100°
2026-04-19 22:00 56.74777 70.09616 33130 ft 511 kts 100°
2026-04-19 22:01 56.73462 70.22264 33130 ft 510 kts 94°
2026-04-19 22:01 56.73143 70.35183 33128 ft 507 kts 88°
2026-04-19 22:02 56.72919 70.48034 33127 ft 508 kts 88°
2026-04-19 22:02 56.72693 70.60801 33125 ft 508 kts 89°
2026-04-19 22:03 56.72443 70.73667 33126 ft 508 kts 89°
2026-04-19 22:03 56.72178 70.86537 33121 ft 509 kts 89°
2026-04-19 22:04 56.71899 70.99417 33119 ft 509 kts 89°
2026-04-19 22:04 56.71608 71.12298 33121 ft 509 kts 89°
2026-04-19 22:05 56.71303 71.25202 33120 ft 510 kts 89°
2026-04-19 22:05 56.70987 71.38090 33125 ft 510 kts 89°
2026-04-19 22:06 56.70652 71.50983 33123 ft 510 kts 89°
2026-04-19 22:06 56.70311 71.63884 33123 ft 510 kts 89°
2026-04-19 22:07 56.69952 71.76781 33124 ft 510 kts 89°
2026-04-19 22:07 56.69578 71.89680 33123 ft 510 kts 89°
2026-04-19 22:08 56.69192 72.02563 33125 ft 510 kts 89°
2026-04-19 22:08 56.68792 72.15443 33130 ft 510 kts 90°
2026-04-19 22:09 56.68386 72.28332 33133 ft 511 kts 89°
2026-04-19 22:09 56.67968 72.41223 33132 ft 511 kts 90°
2026-04-19 22:10 56.67525 72.54122 33133 ft 511 kts 90°
2026-04-19 22:10 56.67065 72.67008 33135 ft 511 kts 90°
2026-04-19 22:11 56.66603 72.79889 33138 ft 511 kts 90°
2026-04-19 22:11 56.66125 72.92782 33139 ft 511 kts 90°
2026-04-19 22:12 56.65637 73.05649 33138 ft 511 kts 90°
2026-04-19 22:12 56.65130 73.18525 33136 ft 511 kts 90°
2026-04-19 22:13 56.64610 73.31393 33133 ft 511 kts 90°
2026-04-19 22:13 56.64073 73.44262 33134 ft 511 kts 90°
2026-04-19 22:14 56.63527 73.57050 33140 ft 511 kts 90°
2026-04-19 22:14 56.62963 73.69922 33146 ft 511 kts 90°
2026-04-19 22:15 56.62399 73.82793 33151 ft 511 kts 90°
2026-04-19 22:15 56.61819 73.95658 33160 ft 511 kts 90°
2026-04-19 22:16 56.61226 74.08525 33170 ft 512 kts 90°
2026-04-19 22:16 56.60603 74.21400 33155 ft 512 kts 91°
2026-04-19 22:17 56.59957 74.34256 33162 ft 511 kts 91°
2026-04-19 22:17 56.59323 74.47099 33174 ft 511 kts 91°
2026-04-19 22:18 56.58689 74.59937 33173 ft 510 kts 91°
2026-04-19 22:18 56.58033 74.72740 33171 ft 509 kts 91°
2026-04-19 22:19 56.57351 74.85520 33177 ft 509 kts 91°
2026-04-19 22:19 56.56659 74.98273 33177 ft 508 kts 92°
2026-04-19 22:20 56.55958 75.11027 33175 ft 508 kts 92°
2026-04-19 22:20 56.55239 75.23762 33174 ft 507 kts 92°
2026-04-19 22:21 56.54513 75.36478 33174 ft 507 kts 92°
2026-04-19 22:21 56.53772 75.49171 33180 ft 506 kts 92°
2026-04-19 22:22 56.53022 75.61845 33178 ft 506 kts 92°
2026-04-19 22:22 56.52270 75.74523 33184 ft 506 kts 92°
2026-04-19 22:23 56.51494 75.87128 33185 ft 506 kts 93°
2026-04-19 22:23 56.50700 75.99811 33185 ft 505 kts 93°
2026-04-19 22:24 56.49900 76.12395 33181 ft 505 kts 93°
2026-04-19 22:24 56.49089 76.25021 33192 ft 504 kts 93°
2026-04-19 22:25 56.48271 76.37630 33183 ft 504 kts 93°
2026-04-19 22:25 56.47436 76.50206 33185 ft 503 kts 94°
2026-04-19 22:26 56.46585 76.62762 33178 ft 502 kts 94°
2026-04-19 22:26 56.45721 76.75329 33174 ft 502 kts 94°
2026-04-19 22:27 56.44856 76.87775 33171 ft 502 kts 94°
2026-04-19 22:27 56.43973 77.00284 33175 ft 502 kts 94°
2026-04-19 22:28 56.43081 77.12777 33173 ft 501 kts 95°
2026-04-19 22:28 56.42161 77.25333 33183 ft 501 kts 95°
2026-04-19 22:29 56.41241 77.37721 33196 ft 500 kts 95°
2026-04-19 22:29 56.40310 77.50177 33211 ft 500 kts 95°
2026-04-19 22:30 56.39396 77.62607 33221 ft 499 kts 95°
2026-04-19 22:30 56.38493 77.75022 33224 ft 499 kts 95°
2026-04-19 22:31 56.37580 77.87423 33221 ft 498 kts 95°
2026-04-19 22:31 56.36644 77.99813 33221 ft 498 kts 95°
2026-04-19 22:32 56.35688 78.12193 33221 ft 498 kts 95°
2026-04-19 22:32 56.34715 78.24544 33222 ft 498 kts 95°
2026-04-19 22:33 56.33860 78.36907 33220 ft 495 kts 89°
2026-04-19 22:33 56.33869 78.49273 33217 ft 493 kts 86°
2026-04-19 22:34 56.33870 78.61639 33218 ft 493 kts 86°
2026-04-19 22:34 56.33856 78.73923 33213 ft 493 kts 86°
2026-04-19 22:35 56.33829 78.86280 33211 ft 493 kts 86°
2026-04-19 22:35 56.33793 78.98643 33211 ft 493 kts 86°
2026-04-19 22:36 56.33756 79.10988 33205 ft 493 kts 87°
2026-04-19 22:36 56.33701 79.23351 33203 ft 493 kts 87°
2026-04-19 22:37 56.33629 79.35711 33202 ft 493 kts 87°
2026-04-19 22:37 56.33545 79.48075 33202 ft 493 kts 87°
2026-04-19 22:38 56.33449 79.60436 33203 ft 493 kts 87°
2026-04-19 22:38 56.33334 79.72787 33202 ft 493 kts 88°
2026-04-19 22:39 56.33234 79.83042 33200 ft 492 kts 88°
2026-04-19 22:39 56.33107 79.95382 33204 ft 493 kts 88°
2026-04-19 22:40 56.32970 80.07720 33206 ft 492 kts 88°
2026-04-19 22:40 56.32806 80.20059 33207 ft 492 kts 88°
2026-04-19 22:41 56.32630 80.32386 33202 ft 492 kts 88°
2026-04-19 22:41 56.32454 80.44708 33196 ft 492 kts 88°
2026-04-19 22:42 56.32274 80.57050 33195 ft 493 kts 89°
2026-04-19 22:42 56.32057 80.69380 33192 ft 492 kts 89°
2026-04-19 22:43 56.31876 80.81748 33190 ft 493 kts 88°
2026-04-19 22:43 56.31747 80.94090 33189 ft 493 kts 88°
2026-04-19 22:44 56.31610 81.06442 33192 ft 493 kts 88°
2026-04-19 22:44 56.31432 81.18791 33187 ft 493 kts 88°
2026-04-19 22:45 56.31233 81.31138 33194 ft 493 kts 89°
2026-04-19 22:45 56.31025 81.43486 33193 ft 493 kts 89°
2026-04-19 22:46 56.30806 81.55838 33195 ft 493 kts 89°
2026-04-19 22:46 56.30563 81.68187 33198 ft 493 kts 89°
2026-04-19 22:47 56.30310 81.80529 33201 ft 493 kts 89°
2026-04-19 22:47 56.30051 81.92871 33206 ft 493 kts 89°
2026-04-19 22:48 56.29772 82.05142 33209 ft 493 kts 89°
2026-04-19 22:48 56.29488 82.17459 33209 ft 493 kts 90°
2026-04-19 22:49 56.29177 82.29798 33208 ft 494 kts 90°
2026-04-19 22:49 56.28853 82.42151 33209 ft 494 kts 90°
2026-04-19 22:50 56.28521 82.54504 33092 ft 495 kts 90°
2026-04-19 22:50 56.28349 82.60685 32807 ft 494 kts 90°
2026-04-19 22:50 56.28173 82.66862 32113 ft 494 kts 90°
2026-04-19 22:50 56.27994 82.73028 31408 ft 493 kts 90°
2026-04-19 22:51 56.27812 82.79181 30728 ft 492 kts 90°
2026-04-19 22:51 56.27449 82.91435 29377 ft 489 kts 90°
2026-04-19 22:51 56.27264 82.97530 28723 ft 487 kts 91°
2026-04-19 22:52 56.27076 83.03603 28061 ft 485 kts 91°
2026-04-19 22:52 56.26888 83.09638 27409 ft 482 kts 91°
2026-04-19 22:52 56.26699 83.15651 26759 ft 480 kts 91°
2026-04-19 22:52 56.26507 83.21617 26190 ft 475 kts 91°
2026-04-19 22:53 56.26311 83.27523 25629 ft 470 kts 91°
2026-04-19 22:53 56.26108 83.33350 25095 ft 465 kts 91°
2026-04-19 22:53 56.25903 83.39118 24561 ft 460 kts 91°
2026-04-19 22:53 56.25700 83.44818 24061 ft 455 kts 91°
2026-04-19 22:54 56.25500 83.50465 23558 ft 450 kts 91°
2026-04-19 22:54 56.25301 83.56059 23087 ft 446 kts 92°
2026-04-19 22:54 56.25102 83.61614 22615 ft 443 kts 91°
2026-04-19 22:54 56.24899 83.67139 22140 ft 441 kts 92°
2026-04-19 22:55 56.24695 83.72616 21668 ft 438 kts 92°
2026-04-19 22:55 56.24487 83.78070 21182 ft 436 kts 92°
2026-04-19 22:55 56.24276 83.83492 20703 ft 433 kts 92°
2026-04-19 22:55 56.24064 83.88880 20202 ft 431 kts 92°
2026-04-19 22:56 56.23863 83.94245 19707 ft 428 kts 90°
2026-04-19 22:56 56.23993 83.99551 19197 ft 423 kts 79°
2026-04-19 22:56 56.24606 84.04665 18704 ft 415 kts 69°
2026-04-19 22:56 56.25426 84.09635 18201 ft 413 kts 69°
2026-04-19 22:57 56.26234 84.14568 17707 ft 411 kts 69°
2026-04-19 22:57 56.27034 84.19485 17222 ft 408 kts 69°
2026-04-19 22:57 56.27822 84.24364 16738 ft 405 kts 69°
2026-04-19 22:57 56.28604 84.29224 16248 ft 403 kts 69°
2026-04-19 22:58 56.29375 84.34048 15770 ft 400 kts 69°
2026-04-19 22:58 56.30141 84.38839 15286 ft 397 kts 69°
2026-04-19 22:58 56.30900 84.43602 14807 ft 395 kts 69°
2026-04-19 22:58 56.31654 84.48335 14326 ft 392 kts 69°
2026-04-19 22:59 56.32402 84.53044 13845 ft 390 kts 69°
2026-04-19 22:59 56.33141 84.57722 13354 ft 387 kts 69°
2026-04-19 22:59 56.33876 84.62374 12868 ft 384 kts 69°
2026-04-19 22:59 56.34604 84.66987 12370 ft 381 kts 69°
2026-04-19 23:00 56.35325 84.71567 11877 ft 378 kts 69°
2026-04-19 23:00 56.36037 84.76112 11379 ft 375 kts 69°
2026-04-19 23:00 56.36703 84.80391 10902 ft 372 kts 70°
2026-04-19 23:00 56.37425 84.85026 10566 ft 362 kts 69°
2026-04-19 23:01 56.38353 84.89098 10440 ft 341 kts 55°
2026-04-19 23:01 56.39664 84.92425 10312 ft 320 kts 41°
2026-04-19 23:01 56.41234 84.95124 10185 ft 304 kts 35°
2026-04-19 23:01 56.42787 84.97640 9933 ft 297 kts 35°
2026-04-19 23:02 56.44324 85.00134 9575 ft 296 kts 36°
2026-04-19 23:02 56.45843 85.02608 9062 ft 292 kts 37°
2026-04-19 23:02 56.47346 85.05052 8501 ft 289 kts 37°
2026-04-19 23:02 56.48825 85.07469 7924 ft 285 kts 38°
2026-04-19 23:03 56.50286 85.09860 7335 ft 281 kts 38°
2026-04-19 23:03 56.51726 85.12220 6740 ft 277 kts 39°
2026-04-19 23:03 56.53145 85.14553 6141 ft 273 kts 39°
2026-04-19 23:03 56.54542 85.16851 5545 ft 270 kts 39°
2026-04-19 23:04 56.55925 85.19116 4945 ft 266 kts 39°
2026-04-19 23:04 56.57119 85.21602 4531 ft 257 kts 60°
2026-04-19 23:04 56.57613 85.24576 4381 ft 239 kts 85°
2026-04-19 23:04 56.57410 85.27440 4260 ft 223 kts 109°
2026-04-19 23:05 56.56672 85.29864 4161 ft 219 kts 123°
2026-04-19 23:05 56.55828 85.32160 4049 ft 218 kts 123°
2026-04-19 23:05 56.54825 85.34265 3681 ft 225 kts 142°
2026-04-19 23:05 56.53473 85.35583 3522 ft 218 kts 163°
2026-04-19 23:06 56.51999 85.35968 3356 ft 212 kts 183°
2026-04-19 23:06 56.50572 85.35460 3147 ft 208 kts 202°
2026-04-19 23:06 56.49321 85.34183 2906 ft 207 kts 215°
2026-04-19 23:06 56.48121 85.32745 2645 ft 207 kts 214°
2026-04-19 23:07 56.46924 85.31312 2375 ft 203 kts 214°
2026-04-19 23:07 56.45772 85.29937 2148 ft 193 kts 214°
2026-04-19 23:07 56.44684 85.28639 1880 ft 183 kts 214°
2026-04-19 23:07 56.43654 85.27411 1652 ft 172 kts 213°
2026-04-19 23:08 56.42696 85.26269 1447 ft 155 kts 213°
2026-04-19 23:08 56.41853 85.25266 1257 ft 140 kts 213°
2026-04-19 23:08 56.41064 85.24326 1078 ft 133 kts 213°
2026-04-19 23:08 56.40300 85.23417 912 ft 130 kts 213°
2026-04-19 23:09 56.39548 85.22523 747 ft 129 kts 213°
2026-04-19 23:09 56.38802 85.21636 589 ft 128 kts 213°
2026-04-19 23:09 56.38108 85.20811 573 ft 106 kts 214°
2026-04-19 23:09 56.37638 85.20249 572 ft 56 kts 213°
2026-04-19 23:10 56.37451 85.20034 572 ft 25 kts 214°
2026-04-19 23:10 56.37370 85.19943 574 ft 6 kts 144°
2026-04-19 23:10 56.37382 85.19963 572 ft 4 kts 28°
2026-04-19 23:10 56.37416 85.19996 568 ft 7 kts 28°
2026-04-19 23:11 56.37471 85.20051 567 ft 11 kts 30°
2026-04-19 23:11 56.37546 85.20132 569 ft 13 kts 33°
2026-04-19 23:11 56.37629 85.20228 567 ft 15 kts 33°
2026-04-19 23:11 56.37723 85.20337 571 ft 16 kts 22°
2026-04-19 23:12 56.37808 85.20254 568 ft 16 kts 302°
2026-04-19 23:12 56.37887 85.20136 568 ft 16 kts
2026-04-19 23:12 56.37988 85.20242 568 ft 18 kts 34°
2026-04-19 23:12 56.38097 85.20372 568 ft 20 kts 33°
2026-04-19 23:13 56.38217 85.20514 568 ft 21 kts 33°
2026-04-19 23:13 56.38346 85.20666 572 ft 23 kts 33°
2026-04-19 23:13 56.38483 85.20828 571 ft 24 kts 33°
2026-04-19 23:13 56.38616 85.20986 575 ft 22 kts 34°
2026-04-19 23:14 56.38713 85.21101 570 ft 14 kts 33°
2026-04-19 23:14 56.38787 85.21182 568 ft 11 kts 15°
2026-04-19 23:14 56.38824 85.21151 568 ft 4 kts 315°
2026-04-19 23:14 56.38840 85.21110 568 ft 3 kts 305°
2026-04-19 23:15 56.38844 85.21100 568 ft 0 kts 304°